Regional Weather Roundup
Issued by NWS Cleveland, OH

Home | Current Version | Previous Version | Text Only | Print | Product List | Glossary On
Versions: 1 2 3 4 5 6 7 8 9 10 11 12 13 14 15 16 17 18 19 20 21 22 23 24 25 26 27 28 29 30 31 32 33 34 35 36 37 38 39 40 41 42 43 44 45 46 47 48 49 50
000
ASUS41 KCLE 240312
RWRCLE
OHIO REGIONAL WEATHER ROUNDUP
NATIONAL WEATHER SERVICE WILMINGTON, OH
1000 PM EST THU JAN 23 2020

NOTE: "FAIR" INDICATES FEW OR NO CLOUDS BELOW 12,000 FEET WITH NO
SIGNIFICANT WEATHER AND/OR OBSTRUCTIONS TO VISIBILITY.

OHZ001>008-015>018-024>027-034-035-043-044-240400-
   NORTHWEST OHIO

CITY           SKY/WX    TMP DP  RH WIND       PRES   REMARKS
DEFIANCE       LGT RAIN  39  27  62 SE7       30.10F
FINDLAY        LGT RAIN  38  29  70 E8        30.10F
TOLEDO EXPRESS LGT RAIN  39  25  57 CALM      30.11F
TOLEDO EXEC    MIX PCPN  37  28  70 E6        30.13F
LIMA           MIX PCPN  37  27  67 E10       30.08F
$$

OHZ009>014-019>023-028>033-038-089-240400-
   NORTHEAST OHIO

CITY           SKY/WX    TMP DP  RH WIND       PRES   REMARKS
CLE-HOPKINS    CLOUDY    39  25  57 SE5       30.18F
CLE-LAKEFRONT  CLOUDY    42  22  44 SE9       30.16F
CUY CO. ARPT   CLOUDY    39  23  52 SE7       30.16F
LORAIN-ELYRIA  LGT RAIN  37  22  54 E6        30.14F
ASHTABULA      CLOUDY    37  20  50 SE5       30.20F
AKRON-CANTON   CLOUDY    38  26  62 NE12      30.12F
WOOSTER        CLOUDY    36  25  64 S10       30.16S
MANSFIELD      CLOUDY    38  25  59 SE8       30.12S
YOUNGSTOWN     CLOUDY    38  21  50 E8        30.17F
$$

OHZ042-051>053-060>062-070>072-077>081-240400-
  SOUTHWEST OHIO

CITY           SKY/WX    TMP DP  RH WIND       PRES   REMARKS
CINC-COVINGTON LGT RAIN  38  33  82 E8        30.03F
CINC-LUNKEN    LGT RAIN  38  36  92 CALM      30.07F
HAMILTON       LGT RAIN  38  33  82 NE5       30.06F
DAYTON         CLOUDY    40  25  55 SE8       30.07F
WRIGHT-PAT AFB LGT RAIN  41  21  45 SE6       30.07F
DAYTON GENERAL LGT RAIN  40  28  62 E5        30.05F
WILMINGTON     CLOUDY    37  26  64 E7        30.07F
$$

OHZ036-037-039>041-045>050-054>059-063>069-073>076-082>088-240400-
  CENTRAL AND SOUTHEAST OHIO

CITY           SKY/WX    TMP DP  RH WIND       PRES   REMARKS
COLUMBUS       CLOUDY    41  20  43 E9        30.11S
OSU AIRPORT    CLOUDY    39  23  52 E8        30.10F
BOLTON FIELD   CLOUDY    39  25  56 E5        30.11F
RICKENBACK AFB CLOUDY    37  25  61 NE3       30.11F
NEWARK         CLOUDY    39  25  57 SW3       30.14R
MARION         CLOUDY    36  28  73 SE6       30.11F
LANCASTER      CLOUDY    39  24  55 NE8       30.10F
ZANESVILLE     CLOUDY    39  22  50 NE6       30.13F
NEW PHILLY     MOCLDY    37  24  59 NE6       30.15F
$$



USA.gov is the U.S. government's official web portal to all federal, state and local government web resources and services.